Weather History for Winner, SD

Change the Weather History Date:

Sunday, May 26, 2013

  Actual Average Record
Temperature  
Mean Temperature 64 °F 61 °F  
Max Temperature 73 °F 73 °F 83 °F (2014)
Min Temperature 54 °F 50 °F 38 °F (2011)
Degree Days  
Heating Degree Days 1 5  
Month to date heating degree days 229 219  
Since 1 July heating degree days 6631 6623  
Cooling Degree Days 0 1  
Month to date cooling degree days 36 21  
Year to date cooling degree days 38 23  
Growing Degree Days 13 (Base 50)    
Moisture  
Dew Point 58 °F    
Average Humidity 87    
Maximum Humidity 100    
Minimum Humidity 73    
Precipitation  
Precipitation T in 0.13 in 0.64 in (2012)
Month to date precipitation 3.52 2.78  
Year to date precipitation 4.98 7.41  
Sea Level Pressure  
Sea Level Pressure 29.88 in    
Wind  
Wind Speed 17 mph (East)    
Max Wind Speed 28 mph    
Max Gust Speed 33 mph    
Visibility 6 miles    
Events Fog , Rain , Thunderstorm    
T = Trace of Precipitation, MM = Missing Value Source: NWS Daily Summary

Daily Weather History Graph

Daily Weather History Graph

Search for Another Location

Airport:

Trip Planner

Search our weather history database for the weather conditions in past years. The results will help you decide how hot, cold, wet, or windy it might be!

Date:

Astronomy

May. 26, 2013 Rise Set
Actual Time 6:05 AM CDT 9:08 PM CDT
Civil Twilight 5:30 AM CDT 9:42 PM CDT
Nautical Twilight 4:47 AM CDT 10:26 PM CDT
Astronomical Twilight 3:55 AM CDT 11:18 PM CDT
Moon 10:56 PM CDT (5/26) 7:36 AM CDT (5/26)
Length of Visible Light 16h 11m
Length of Day
15h 03m
Waning Gibbous, 96% of the Moon is Illuminated
May 26
Waning Gibbous
May 31
Last Quarter
Jun 8
New
Jun 16
First Quarter
Jun 23
Full

Hourly Weather History & Observations

Time (CDT) Temp. Dew Point Humidity Pressure Visibility Wind Dir Wind Speed Gust Speed Precip Events Conditions
12:10 AM 66.2 °F 62.6 °F 88% 29.88 in 10.0 mi East 16.1 mph - N/A   Mostly Cloudy
12:45 AM 64.4 °F 60.8 °F 88% 29.87 in 10.0 mi East 18.4 mph - N/A   Overcast
12:53 AM 64.9 °F 60.1 °F 84% 29.83 in 9.0 mi East 15.0 mph 27.6 mph N/A   Overcast
1:09 AM 64.4 °F 60.8 °F 88% 29.88 in 9.0 mi East 13.8 mph 24.2 mph N/A   Overcast
1:38 AM 62.6 °F 59.0 °F 88% 29.87 in 8.0 mi East 12.7 mph - N/A   Overcast
1:53 AM 63.0 °F 59.0 °F 87% 29.81 in 7.0 mi East 16.1 mph - N/A   Overcast
2:53 AM 61.0 °F 59.0 °F 93% 29.79 in 5.0 mi East 15.0 mph 25.3 mph N/A   Overcast
3:20 AM 59.0 °F 57.2 °F 94% 29.87 in 2.0 mi ENE 23.0 mph 29.9 mph N/A   Overcast
3:22 AM 57.2 °F 57.2 °F 100% 29.87 in 1.5 mi ENE 20.7 mph 29.9 mph N/A   Overcast
3:35 AM 57.2 °F 57.2 °F 100% 29.86 in 0.5 mi East 24.2 mph 28.8 mph N/A Fog Fog
3:53 AM 57.0 °F 55.9 °F 96% 29.83 in 0.2 mi East 19.6 mph 26.5 mph N/A Fog Fog
4:53 AM 55.9 °F 55.0 °F 97% 29.83 in 0.2 mi East 18.4 mph 24.2 mph N/A Fog Fog
5:53 AM 55.0 °F 54.0 °F 96% 29.88 in 0.2 mi ENE 17.3 mph 28.8 mph N/A Fog Fog
6:07 AM 53.6 °F 53.6 °F 100% 29.93 in 0.2 mi ENE 23.0 mph 28.8 mph 0.00 in Fog , Rain Light Rain
6:53 AM 54.0 °F 54.0 °F 100% 29.90 in 0.2 mi East 20.7 mph 28.8 mph 0.00 in Fog , Rain Light Rain
7:53 AM 57.0 °F 57.0 °F 100% 29.89 in 0.5 mi East 17.3 mph 25.3 mph 0.00 in Fog Fog
8:10 AM 57.2 °F 57.2 °F 100% 29.92 in 1.2 mi East 17.3 mph - N/A   Overcast
8:31 AM 57.2 °F 57.2 °F 100% 29.91 in 2.5 mi East 17.3 mph - N/A   Overcast
8:43 AM 59.0 °F 57.2 °F 94% 29.90 in 4.0 mi ESE 19.6 mph 29.9 mph N/A   Overcast
8:53 AM 59.0 °F 57.9 °F 96% 29.88 in 5.0 mi East 20.7 mph 26.5 mph N/A   Overcast
9:32 AM 59.0 °F 57.2 °F 94% 29.94 in 6.0 mi ENE 16.1 mph - N/A   Overcast
9:53 AM 59.0 °F 57.0 °F 93% 29.93 in 10.0 mi ENE 15.0 mph - N/A   Overcast
10:00 AM 59.0 °F 57.2 °F 94% 29.96 in 10.0 mi East 15.0 mph - N/A   Overcast
10:31 AM 57.2 °F 57.2 °F 100% 29.92 in 3.0 mi ESE 18.4 mph - 0.00 in Rain Light Rain
10:53 AM 57.9 °F 55.9 °F 93% 29.90 in 9.0 mi ESE 19.6 mph 31.1 mph 0.00 in   Overcast
11:53 AM 61.0 °F 57.9 °F 90% 29.90 in 10.0 mi ESE 18.4 mph - N/A   Overcast
12:14 PM 60.8 °F 57.2 °F 88% 29.94 in 10.0 mi East 13.8 mph 21.9 mph N/A   Overcast
12:53 PM 60.1 °F 57.0 °F 90% 29.91 in 7.0 mi East 15.0 mph - N/A   Overcast
1:12 PM 60.8 °F 57.2 °F 88% 29.93 in 3.0 mi East 16.1 mph - N/A   Overcast
1:53 PM 60.1 °F 57.9 °F 93% 29.90 in 9.0 mi East 16.1 mph - N/A   Overcast
2:01 PM 60.8 °F 57.2 °F 88% 29.92 in 9.0 mi East 13.8 mph - N/A   Overcast
2:50 PM 62.6 °F 57.2 °F 82% 29.90 in 10.0 mi East 16.1 mph - N/A Thunderstorm Overcast
2:53 PM 63.0 °F 59.0 °F 87% 29.89 in 10.0 mi ESE 13.8 mph - N/A Thunderstorm Overcast
3:05 PM 62.6 °F 59.0 °F 88% 29.90 in 10.0 mi East 13.8 mph - N/A   Overcast
3:32 PM 64.4 °F 60.8 °F 88% 29.90 in 10.0 mi East 12.7 mph - N/A   Overcast
3:53 PM 66.0 °F 60.1 °F 81% 29.88 in 10.0 mi ESE 16.1 mph - N/A   Overcast
4:20 PM 68.0 °F 60.8 °F 78% 29.88 in 10.0 mi SE 18.4 mph - N/A   Partly Cloudy
4:53 PM 69.1 °F 62.1 °F 78% 29.85 in 10.0 mi SE 19.6 mph - N/A   Clear
5:53 PM 73.0 °F 64.0 °F 73% 29.85 in 10.0 mi ESE 10.4 mph - N/A   Partly Cloudy
6:53 PM 71.1 °F 63.0 °F 75% 29.84 in 10.0 mi East 13.8 mph - N/A   Clear
7:35 PM 69.8 °F 62.6 °F 78% 29.86 in 10.0 mi ENE 16.1 mph - N/A   Mostly Cloudy
7:53 PM 66.9 °F 62.1 °F 84% 29.86 in 9.0 mi East 17.3 mph - N/A   Overcast
8:22 PM 62.6 °F 60.8 °F 94% 29.86 in 6.0 mi ENE 18.4 mph - N/A   Overcast
8:35 PM 62.6 °F 59.0 °F 88% 29.86 in 6.0 mi ENE 19.6 mph - N/A   Overcast
8:46 PM 62.6 °F 59.0 °F 88% 29.86 in 6.0 mi East 20.7 mph 26.5 mph N/A   Overcast
8:53 PM 62.1 °F 59.0 °F 90% 29.83 in 6.0 mi East 19.6 mph 29.9 mph N/A   Overcast
9:42 PM 60.8 °F 57.2 °F 88% 29.84 in 4.0 mi ENE 20.7 mph 25.3 mph N/A   Overcast
9:48 PM 59.0 °F 57.2 °F 94% 29.83 in 2.0 mi East 23.0 mph 26.5 mph N/A   Overcast
9:53 PM 59.0 °F 57.9 °F 96% 29.82 in 1.5 mi East 24.2 mph 29.9 mph N/A   Overcast
10:09 PM 57.2 °F 57.2 °F 100% 29.84 in 0.8 mi East 21.9 mph 31.1 mph N/A   Mist
10:53 PM 57.0 °F 57.0 °F 100% 29.89 in 0.5 mi East 15.0 mph - N/A Fog Fog
11:06 PM 57.2 °F 55.4 °F 94% 29.89 in 1.2 mi ENE 13.8 mph - N/A   Overcast
11:42 PM 55.4 °F 55.4 °F 100% 29.86 in 2.5 mi ENE 15.0 mph - N/A   Overcast
11:45 PM 55.4 °F 55.4 °F 100% 29.87 in 1.8 mi ENE 13.8 mph - N/A   Overcast
11:53 PM 55.9 °F 55.0 °F 97% 29.86 in 0.8 mi ENE 13.8 mph - N/A   Mist